Weather History for KOPM - January, 2013

Change the Weather History Date:

Wednesday, January 23, 2013

  Actual Average Record
Temperature  
Mean Temperature 68 °F -  
Max Temperature 69 °F - - ()
Min Temperature 66 °F - - ()
Cooling Degree Days 2    
Growing Degree Days 18 (Base 50)    
Moisture  
Dew Point 63 °F    
Average Humidity 82    
Maximum Humidity 88    
Minimum Humidity 78    
Precipitation  
Precipitation 0.00 in - - ()
Sea Level Pressure  
Sea Level Pressure 30.27 in    
Wind  
Wind Speed 11 mph (ESE)    
Max Wind Speed 17 mph    
Max Gust Speed -    
Visibility 10 miles    
Events      
T = Trace of Precipitation, MM = Missing Value Source: NWS Daily Summary

Daily Weather History Graph

Daily Weather History Graph

Search for Another Location

Airport or City:

Trip Planner

Search our weather history database for the weather conditions in past years. The results will help you decide how hot, cold, wet, or windy it might be!

Date:

Astronomy

Jan. 23, 2013 Rise Set
Actual Time 7:16 AM CST 6:03 PM CST
Civil Twilight 6:51 AM CST 6:27 PM CST
Nautical Twilight 6:23 AM CST 6:55 PM CST
Astronomical Twilight 5:55 AM CST 7:23 PM CST
Moon 3:18 PM CST (1/23) 4:24 AM CST (1/23)
Length of Visible Light 11h 35m
Length of Day
10h 46m
Waxing Gibbous, 89% of the Moon is Illuminated
Jan 23
Waxing Gibbous
Jan 26
Full
Feb 3
Last Quarter
Feb 10
New
Feb 17
First Quarter

Hourly Weather History & Observations

Time (CST) Temp. Dew Point Humidity Pressure Visibility Wind Dir Wind Speed Gust Speed Precip Events Conditions
12:15 AM 66.2 °F 60.8 °F 83% 30.25 in 10.0 mi East 11.5 mph - N/A   Clear
12:35 AM 68.0 °F 60.8 °F 78% 30.25 in 10.0 mi East 11.5 mph - N/A   Clear
12:55 AM 68.0 °F 60.8 °F 78% 30.25 in 10.0 mi East 11.5 mph - N/A   Clear
1:15 AM 68.0 °F 60.8 °F 78% 30.25 in 10.0 mi East 10.4 mph - N/A   Clear
1:35 AM 68.0 °F 60.8 °F 78% 30.25 in 10.0 mi East 9.2 mph - N/A   Partly Cloudy
1:55 AM 68.0 °F 60.8 °F 78% 30.25 in 10.0 mi East 10.4 mph - N/A   Mostly Cloudy
2:15 AM 66.2 °F 60.8 °F 83% 30.24 in 10.0 mi East 10.4 mph - N/A   Mostly Cloudy
2:35 AM 68.0 °F 60.8 °F 78% 30.24 in 10.0 mi East 9.2 mph - N/A   Mostly Cloudy
2:55 AM 68.0 °F 60.8 °F 78% 30.24 in 10.0 mi East 10.4 mph - N/A   Mostly Cloudy
3:15 AM 68.0 °F 62.6 °F 83% 30.23 in 10.0 mi ESE 10.4 mph - N/A   Scattered Clouds
3:35 AM 68.0 °F 62.6 °F 83% 30.23 in 10.0 mi ESE 9.2 mph - N/A   Clear
3:55 AM 68.0 °F 62.6 °F 83% 30.23 in 10.0 mi ESE 10.4 mph - N/A   Clear
4:15 AM 68.0 °F 62.6 °F 83% 30.23 in 10.0 mi ESE 10.4 mph - N/A   Clear
4:35 AM 68.0 °F 62.6 °F 83% 30.23 in 10.0 mi ESE 10.4 mph - N/A   Clear
4:55 AM 68.0 °F 62.6 °F 83% 30.23 in 10.0 mi ESE 9.2 mph - N/A   Clear
5:15 AM 68.0 °F 62.6 °F 83% 30.24 in 10.0 mi ESE 9.2 mph - N/A   Clear
5:35 AM 68.0 °F 62.6 °F 83% 30.25 in 10.0 mi ESE 9.2 mph - N/A   Partly Cloudy
5:55 AM 68.0 °F 62.6 °F 83% 30.25 in 10.0 mi ESE 8.1 mph - N/A   Scattered Clouds
6:15 AM 68.0 °F 62.6 °F 83% 30.25 in 10.0 mi ESE 10.4 mph - N/A   Partly Cloudy
6:35 AM 68.0 °F 62.6 °F 83% 30.26 in 10.0 mi ESE 10.4 mph - N/A   Clear
6:55 AM 68.0 °F 62.6 °F 83% 30.26 in 10.0 mi ESE 10.4 mph - N/A   Clear
7:15 AM 68.0 °F 62.6 °F 83% 30.27 in 10.0 mi ESE 10.4 mph - N/A   Scattered Clouds
7:35 AM 69.8 °F 62.6 °F 78% 30.28 in 10.0 mi ESE 11.5 mph - N/A   Partly Cloudy
7:55 AM 69.8 °F 62.6 °F 78% 30.28 in 10.0 mi SE 11.5 mph - N/A   Clear
8:15 AM 69.8 °F 62.6 °F 78% 30.29 in 10.0 mi SE 12.7 mph - N/A   Clear
8:35 AM 69.8 °F 62.6 °F 78% 30.29 in 10.0 mi SE 12.7 mph - N/A   Partly Cloudy
8:55 AM 69.8 °F 62.6 °F 78% 30.29 in 10.0 mi SE 12.7 mph - N/A   Clear
9:15 AM 69.8 °F 62.6 °F 78% 30.30 in 10.0 mi SE 10.4 mph - N/A   Clear
9:35 AM 69.8 °F 64.4 °F 83% 30.31 in 10.0 mi SE 11.5 mph - N/A   Clear
9:55 AM 69.8 °F 64.4 °F 83% 30.32 in 10.0 mi ESE 10.4 mph - N/A   Clear
10:15 AM 69.8 °F 62.6 °F 78% 30.33 in 9.0 mi ESE 11.5 mph - N/A   Clear
10:35 AM 69.8 °F 62.6 °F 78% 30.33 in 10.0 mi ESE 10.4 mph - N/A   Clear
10:55 AM 69.8 °F 62.6 °F 78% 30.34 in 10.0 mi ESE 10.4 mph - N/A   Clear
11:15 AM 69.8 °F 62.6 °F 78% 30.33 in 10.0 mi ESE 10.4 mph - N/A   Clear
11:35 AM 69.8 °F 62.6 °F 78% 30.33 in 10.0 mi ESE 10.4 mph - N/A   Clear
11:55 AM 69.8 °F 62.6 °F 78% 30.32 in 10.0 mi SE 10.4 mph - N/A   Partly Cloudy
12:15 PM 69.8 °F 64.4 °F 83% 30.31 in 10.0 mi SE 9.2 mph - N/A   Scattered Clouds
12:35 PM 69.8 °F 64.4 °F 83% 30.31 in 10.0 mi SE 10.4 mph - N/A   Partly Cloudy
12:55 PM 69.8 °F 64.4 °F 83% 30.29 in 10.0 mi SE 10.4 mph - N/A   Partly Cloudy
1:15 PM 69.8 °F 64.4 °F 83% 30.29 in 10.0 mi SE 9.2 mph - N/A   Partly Cloudy
1:35 PM 69.8 °F 64.4 °F 83% 30.28 in 10.0 mi SE 8.1 mph - N/A   Partly Cloudy
1:55 PM 69.8 °F 64.4 °F 83% 30.27 in 10.0 mi SE 9.2 mph - N/A   Clear
2:15 PM 69.8 °F 64.4 °F 83% 30.27 in 10.0 mi SE 9.2 mph - N/A   Clear
2:35 PM 69.8 °F 64.4 °F 83% 30.26 in 10.0 mi SE 10.4 mph - N/A   Clear
2:55 PM 69.8 °F 64.4 °F 83% 30.25 in 10.0 mi SE 12.7 mph - N/A   Clear
3:15 PM 69.8 °F 62.6 °F 78% 30.25 in 10.0 mi SE 12.7 mph - N/A   Clear
3:35 PM 69.8 °F 62.6 °F 78% 30.25 in 10.0 mi SE 13.8 mph - N/A   Clear
3:55 PM 69.8 °F 62.6 °F 78% 30.24 in 9.0 mi SE 13.8 mph - N/A   Clear
4:15 PM 69.8 °F 62.6 °F 78% 30.24 in 10.0 mi SE 13.8 mph - N/A   Clear
4:35 PM 68.0 °F 62.6 °F 83% 30.24 in 10.0 mi SE 13.8 mph - N/A   Clear
4:55 PM 68.0 °F 62.6 °F 83% 30.24 in 10.0 mi ESE 12.7 mph - N/A   Clear
5:15 PM 68.0 °F 62.6 °F 83% 30.24 in 10.0 mi ESE 12.7 mph - N/A   Clear
5:35 PM 68.0 °F 62.6 °F 83% 30.24 in 10.0 mi ESE 12.7 mph - N/A   Clear
5:55 PM 68.0 °F 62.6 °F 83% 30.24 in 10.0 mi SE 13.8 mph - N/A   Clear
6:15 PM 68.0 °F 62.6 °F 83% 30.25 in 10.0 mi ESE 15.0 mph - N/A   Clear
6:35 PM 69.8 °F 62.6 °F 78% 30.25 in 10.0 mi ESE 15.0 mph - N/A   Clear
6:55 PM 69.8 °F 62.6 °F 78% 30.25 in 10.0 mi ESE 15.0 mph - N/A   Clear
7:15 PM 68.0 °F 62.6 °F 83% 30.26 in 10.0 mi SE 15.0 mph - N/A   Clear
7:55 PM 68.0 °F 62.6 °F 83% 30.27 in 10.0 mi SE 13.8 mph - N/A   Clear
8:15 PM 68.0 °F 62.6 °F 83% 30.27 in 10.0 mi SE 13.8 mph - N/A   Clear
8:35 PM 68.0 °F 62.6 °F 83% 30.27 in 10.0 mi SE 13.8 mph - N/A   Clear
8:55 PM 68.0 °F 64.4 °F 88% 30.27 in 10.0 mi SE 15.0 mph - N/A   Clear
9:15 PM 68.0 °F 62.6 °F 83% 30.27 in 10.0 mi SE 15.0 mph - N/A   Clear
9:35 PM 68.0 °F 62.6 °F 83% 30.27 in 10.0 mi SE 16.1 mph - N/A   Clear
9:55 PM 68.0 °F 62.6 °F 83% 30.26 in 10.0 mi SE 16.1 mph - N/A   Clear
10:15 PM 66.2 °F 62.6 °F 88% 30.26 in 10.0 mi SE 16.1 mph - N/A   Clear
10:35 PM 66.2 °F 62.6 °F 88% 30.26 in 10.0 mi SE 17.3 mph - N/A   Clear
10:55 PM 66.2 °F 62.6 °F 88% 30.26 in 10.0 mi SE 17.3 mph - N/A   Clear
11:15 PM 66.2 °F 62.6 °F 88% 30.26 in 10.0 mi SE 15.0 mph - N/A   Clear
11:35 PM 66.2 °F 62.6 °F 88% 30.26 in 10.0 mi SSE 15.0 mph - N/A   Clear
11:55 PM 66.2 °F 62.6 °F 88% 30.26 in 10.0 mi SSE 16.1 mph - N/A   Clear